GW0571 Weather Reports


Display with metric or nautical units.
time (UTC)temp
F
wind
direction
speed
MPH
gust
MPH
rain 1hr
in
rain 24hr
in
rain mn
in
humidity
%
barometer
mb
20260509213805 53 220 1.0 3.0 0.00 0.37 0.37 96 1007.3
20260509213301 52 237 6.0 6.0 0.00 0.37 0.37 96 1007.5
20260509212758 52 116 2.0 5.0 0.00 0.37 0.37 96 1007.4
20260509212255 52 131 3.0 7.0 0.00 0.37 0.37 96 1007.7
20260509211751 52 145 2.0 5.0 0.00 0.37 0.37 96 1007.5
20260509211248 52 202 1.0 5.0 0.00 0.37 0.37 96 1007.6
20260509210744 52 236 4.0 6.0 0.00 0.37 0.37 96 1007.7
20260509210242 52 128 1.0 5.0 0.00 0.37 0.37 96 1007.9
20260509205741 51 141 4.0 7.0 0.00 0.37 0.37 96 1007.9
20260509205236 51 192 2.0 7.0 0.02 0.37 0.37 96 1008.0
20260509204732 51 189 2.0 6.0 0.02 0.37 0.37 96 1007.9
20260509204229 51 237 2.0 5.0 0.00 0.37 0.37 96 1008.0
20260509203725 51 187 2.0 7.0 0.00 0.37 0.37 96 1008.1
20260509203223 51 217 3.0 5.0 0.00 0.37 0.37 96 1008.1
20260509202719 51 125 3.0 5.0 0.00 0.37 0.37 96 1008.2
20260509202214 50 134 2.0 5.0 0.00 0.37 0.37 96 1008.1
20260509201709 50 213 3.0 5.0 0.00 0.37 0.37 96 1008.3
20260509201206 50 183 1.0 3.0 0.00 0.37 0.37 96 1008.2
20260509200703 50 198 2.0 5.0 0.02 0.37 0.37 96 1008.2
20260509200157 50 168 3.0 4.0 0.00 0.37 0.37 96 1008.3
20260509195654 50 133 4.0 6.0 0.00 0.37 0.37 96 1008.5
20260509195149 50 83 2.0 3.0 0.02 0.37 0.37 96 1008.3
20260509194643 50 132 2.0 7.0 0.02 0.37 0.37 96 1008.5
20260509194140 50 98 0.0 5.0 0.00 0.36 0.36 96 1008.3
20260509193636 50 163 3.0 11.0 0.02 0.36 0.36 96 1008.4
20260509193132 50 131 8.0 8.0 0.02 0.36 0.36 96 1008.6
20260509192629 50 105 2.0 3.0 0.02 0.36 0.36 96 1008.6
20260509192123 50 212 2.0 4.0 0.02 0.36 0.36 96 1008.6
20260509191618 50 190 0.0 5.0 0.02 0.35 0.35 96 1008.7
20260509191115 50 137 3.0 5.0 0.02 0.35 0.35 96 1008.6
20260509190611 50 151 1.0 7.0 0.00 0.35 0.35 96 1008.7
20260509190109 50 154 2.0 5.0 0.02 0.35 0.35 96 1008.9
20260509185606 50 154 2.0 6.0 0.00 0.35 0.35 96 1008.8
20260509185102 50 144 2.0 7.0 0.00 0.35 0.35 96 1008.8
20260509184601 50 151 3.0 4.0 0.02 0.35 0.35 96 1008.7
20260509184057 50 186 3.0 5.0 0.02 0.35 0.35 96 1008.9
20260509183552 50 120 3.0 5.0 0.00 0.34 0.34 96 1008.9
20260509183048 50 156 2.0 5.0 0.00 0.34 0.34 96 1008.7
20260509182545 50 237 3.0 5.0 0.00 0.34 0.34 96 1008.8
20260509182042 50 152 4.0 7.0 0.00 0.34 0.34 96 1008.5
20260509181540 50 159 4.0 7.0 0.00 0.34 0.34 95 1008.6
20260509181037 50 202 3.0 10.0 0.00 0.34 0.34 95 1008.7
20260509180532 50 123 1.0 6.0 0.00 0.34 0.34 95 1008.6
20260509180030 50 184 4.0 9.0 0.00 0.34 0.34 96 1008.7
20260509175525 50 139 3.0 11.0 0.00 0.34 0.34 96 1008.6
20260509175023 50 201 5.0 8.0 0.00 0.34 0.34 96 1008.7
20260509174519 50 166 0.0 3.0 0.00 0.34 0.34 96 1008.7
20260509174014 50 140 2.0 4.0 0.02 0.34 0.34 96 1008.5
20260509173509 50 155 3.0 5.0 0.02 0.34 0.34 96 1008.7
20260509173005 50 110 3.0 4.0 0.00 0.34 0.34 96 1008.8
20260509172502 50 186 2.0 7.0 0.00 0.34 0.34 96 1008.6
20260509171958 49 223 3.0 6.0 0.00 0.34 0.34 96 1008.7
20260509171454 49 234 4.0 6.0 0.00 0.34 0.34 96 1008.6
20260509170951 49 185 4.0 7.0 0.00 0.34 0.34 96 1008.8
20260509170446 49 237 2.0 3.0 0.00 0.34 0.34 96 1008.7
20260509165942 49 92 0.0 7.0 0.00 0.34 0.34 96 1008.6
20260509165442 49 124 7.0 7.0 0.00 0.34 0.34 96 1008.6
20260509164937 49 233 3.0 5.0 0.00 0.34 0.34 96 1008.8
20260509164433 49 207 0.0 4.0 0.00 0.34 0.34 96 1009.0
20260509163929 49 204 2.0 5.0 0.00 0.34 0.34 96 1008.7
20260509163427 49 150 5.0 6.0 0.02 0.34 0.34 96 1008.8
20260509162926 49 140 2.0 13.0 0.00 0.34 0.34 96 1008.9
20260509162425 49 137 7.0 8.0 0.00 0.34 0.34 96 1008.8
20260509161920 49 147 2.0 3.0 0.00 0.34 0.34 96 1009.1
20260509161417 49 133 2.0 7.0 0.00 0.34 0.34 96 1008.8
20260509160913 50 252 2.0 5.0 0.00 0.34 0.34 96 1009.0
20260509160408 49 166 3.0 11.0 0.02 0.34 0.34 96 1009.1
20260509155903 49 190 2.0 9.0 0.02 0.34 0.34 96 1009.2
20260509155401 49 122 2.0 5.0 0.02 0.33 0.33 96 1009.1
20260509154857 49 140 4.0 8.0 0.05 0.33 0.33 96 1009.2
20260509154353 49 180 0.0 7.0 0.02 0.33 0.33 96 1009.2
20260509153850 50 105 2.0 6.0 0.02 0.32 0.32 96 1009.2
20260509153347 49 152 5.0 10.0 0.05 0.32 0.32 96 1009.3
20260509152844 50 134 0.0 4.0 0.02 0.32 0.32 96 1009.1
20260509152340 49 99 0.0 7.0 0.02 0.32 0.32 96 1009.3
20260509151838 49 199 4.0 6.0 0.02 0.31 0.31 96 1009.3
20260509151333 49 123 9.0 9.0 0.05 0.31 0.31 96 1009.6
20260509150832 49 105 2.0 9.0 0.05 0.31 0.31 96 1009.6
20260509150329 49 165 2.0 7.0 0.05 0.30 0.30 96 1009.7
20260509145826 49 152 1.0 6.0 0.05 0.30 0.30 96 1009.7
20260509145321 48 159 3.0 4.0 0.05 0.29 0.29 96 1009.7
20260509144818 48 145 3.0 7.0 0.05 0.29 0.29 96 1009.9
20260509144315 48 160 3.0 5.0 0.02 0.29 0.29 96 1009.8
20260509143812 48 124 2.0 4.0 0.02 0.28 0.28 96 1009.8
20260509143309 48 147 2.0 9.0 0.05 0.28 0.28 96 1010.1
20260509142805 48 127 3.0 7.0 0.05 0.28 0.28 96 1009.7
20260509142302 48 155 3.0 6.0 0.05 0.27 0.27 96 1009.9
20260509141757 48 117 2.0 5.0 0.05 0.27 0.27 96 1010.0
20260509141254 48 176 1.0 6.0 0.02 0.26 0.26 96 1009.9
20260509140751 48 189 1.0 7.0 0.02 0.26 0.26 96 1009.6
20260509140248 48 142 0.0 4.0 0.05 0.26 0.26 96 1010.0
20260509135746 48 224 0.0 6.0 0.05 0.26 0.26 96 1009.8
20260509135243 47 139 2.0 7.0 0.07 0.25 0.25 96 1009.9
20260509134740 48 112 3.0 6.0 0.07 0.25 0.25 96 1009.9
20260509134238 48 137 2.0 4.0 0.05 0.24 0.24 96 1009.9
20260509133735 48 126 3.0 6.0 0.07 0.24 0.24 96 1010.0
20260509133231 48 144 3.0 5.0 0.05 0.23 0.23 96 1010.2
20260509132730 47 122 1.0 4.0 0.05 0.23 0.23 96 1009.7
20260509132228 47 76 0.0 4.0 0.05 0.22 0.22 96 1009.9
20260509131725 47 64 1.0 4.0 0.05 0.22 0.22 96 1010.1
20260509131221 47 125 3.0 4.0 0.07 0.21 0.21 96 1010.1
20260509130717 47 194 0.0 3.0 0.07 0.21 0.21 96 1010.1
20260509130213 47 170 1.0 3.0 0.07 0.20 0.20 96 1010.1
20260509125710 47 99 2.0 5.0 0.07 0.20 0.20 96 1010.2
20260509125207 47 145 2.0 6.0 0.02 0.19 0.19 96 1010.2
20260509124703 47 100 3.0 3.0 0.05 0.18 0.18 96 1010.1
20260509124200 47 142 7.0 7.0 0.05 0.18 0.18 96 1010.3
20260509123658 47 110 2.0 3.0 0.07 0.18 0.18 96 1010.2
20260509123155 47 164 3.0 5.0 0.05 0.17 0.17 96 1010.3
20260509122650 47 158 2.0 5.0 0.07 0.17 0.17 96 1010.1
20260509122148 46 139 4.0 6.0 0.05 0.16 0.16 96 1010.1
20260509121644 46 212 3.0 5.0 0.05 0.16 0.16 96 1010.3
20260509121142 46 132 0.0 3.0 0.05 0.15 0.15 96 1010.3
20260509120640 46 131 3.0 5.0 0.05 0.15 0.15 96 1010.3
20260509120138 46 127 2.0 5.0 0.05 0.14 0.14 96 1010.3
20260509115635 46 112 1.0 4.0 0.05 0.14 0.14 96 1010.4
20260509115132 46 129 2.0 3.0 0.07 0.13 0.13 96 1010.5
20260509114631 46 120 3.0 6.0 0.05 0.13 0.13 96 1010.4
20260509114129 46 133 3.0 4.0 0.05 0.12 0.12 96 1010.5
20260509113627 46 111 3.0 5.0 0.05 0.12 0.12 96 1010.3
20260509113124 46 107 3.0 5.0 0.05 0.11 0.11 96 1010.6
20260509112620 46 110 3.0 4.0 0.07 0.11 0.11 96 1010.6
20260509112118 46 121 0.0 3.0 0.07 0.11 0.11 96 1010.5
20260509111615 46 175 0.0 1.0 0.07 0.10 0.10 96 1010.4
20260509111111 46 189 3.0 7.0 0.07 0.09 0.09 96 1010.3
20260509110609 46 145 3.0 5.0 0.07 0.09 0.09 96 1010.4
20260509110106 46 117 0.0 3.0 0.07 0.08 0.08 96 1010.2
20260509105604 46 98 2.0 5.0 0.05 0.07 0.07 96 1010.1
20260509105101 46 112 3.0 7.0 0.05 0.07 0.07 96 1010.3
20260509104558 46 139 2.0 6.0 0.05 0.06 0.06 96 1010.3
20260509104055 45 137 2.0 4.0 0.05 0.06 0.06 96 1010.3
20260509103553 45 138 2.0 4.0 0.07 0.06 0.06 96 1010.3
20260509103051 45 126 3.0 5.0 0.05 0.05 0.05 96 1010.1
20260509102548 45 121 2.0 6.0 0.02 0.04 0.04 96 1010.3
20260509102045 45 109 2.0 5.0 0.05 0.04 0.04 96 1010.2
20260509101541 45 134 3.0 3.0 0.02 0.04 0.04 96 1010.2
20260509101038 45 144 3.0 4.0 0.00 0.04 0.04 96 1010.1
20260509100535 45 115 2.0 4.0 0.02 0.04 0.04 96 1010.1
20260509100032 45 127 2.0 4.0 0.02 0.04 0.04 96 1010.0
20260509095529 45 118 1.0 2.0 0.00 0.03 0.03 96 1010.3
20260509095026 45 135 0.0 2.0 0.00 0.03 0.03 96 1010.2
20260509094522 45 158 0.0 5.0 0.00 0.03 0.03 96 1010.2
20260509094020 45 180 0.0 4.0 0.00 0.03 0.03 96 1010.0
20260509093518 45 120 1.0 3.0 0.00 0.03 0.03 96 1009.9
20260509093015 45 119 2.0 3.0 0.00 0.03 0.03 96 1010.2
20260509092513 45 164 1.0 3.0 0.00 0.03 0.03 96 1010.1
20260509092011 45 58 2.0 3.0 0.00 0.03 0.03 96 1010.2
20260509091508 45 122 2.0 4.0 0.02 0.03 0.03 96 1010.1
20260509091005 45 112 2.0 2.0 0.02 0.03 0.03 96 1010.2
20260509090502 45 122 2.0 3.0 0.02 0.03 0.03 96 1010.3
20260509090000 45 128 1.0 2.0 0.02 0.02 0.02 96 1010.3
20260509085456 45 98 1.0 1.0 0.02 0.02 0.02 96 1010.2
20260509084953 45 81 2.0 2.0 0.02 0.02 0.02 96 1010.2
20260509084450 45 149 1.0 4.0 0.02 0.02 0.02 96 1010.4
20260509083947 44 125 0.0 2.0 0.00 0.02 0.02 96 1010.3
20260509083444 44 86 1.0 3.0 0.00 0.02 0.02 96 1010.4
20260509082941 44 103 0.0 2.0 0.00 0.02 0.02 96 1010.6
20260509082438 44 69 0.0 4.0 0.00 0.02 0.02 96 1010.4
20260509081935 44 37 0.0 2.0 0.00 0.02 0.02 96 1010.4
20260509081432 44 73 2.0 2.0 0.00 0.02 0.02 96 1010.7
20260509080929 44 101 2.0 3.0 0.00 0.02 0.02 96 1010.7
20260509080427 44 121 2.0 3.0 0.00 0.02 0.02 96 1010.7
20260509075925 44 106 1.0 3.0 0.00 0.02 0.02 96 1010.8
20260509075422 44 158 3.0 3.0 0.00 0.02 0.02 96 1010.9
20260509074920 44 144 2.0 4.0 0.00 0.02 0.02 96 1010.7
20260509074417 43 151 2.0 2.0 0.00 0.02 0.02 96 1010.8
20260509073913 43 107 1.0 2.0 0.00 0.02 0.02 96 1010.8
20260509073410 43 55 0.0 1.0 0.00 0.02 0.02 95 1010.7
20260509072906 43 18 0.0 2.0 0.00 0.02 0.02 95 1010.7
20260509072403 43 128 0.0 1.0 0.02 0.02 0.02 95 1010.7
20260509071859 43 121 1.0 2.0 0.02 0.02 0.02 95 1010.5
20260509071357 42 105 1.0 2.0 0.00 0.01 0.01 95 1010.5
20260509070854 42 95 1.0 1.0 0.00 0.01 0.01 94 1010.6
20260509070351 42 113 1.0 2.0 0.00 0.01 0.01 94 1010.6
20260509065846 42 107 0.0 2.0 0.00 0.01 0.01 94 1010.5
20260509065343 42 100 1.0 2.0 0.02 0.01 0.01 94 1010.6
20260509064839 42 118 0.0 2.0 0.02 0.01 0.01 94 1010.7
20260509064337 42 89 1.0 1.0 0.02 0.01 0.01 93 1011.0
20260509063834 43 59 0.0 1.0 0.00 0.01 0.01 93 1010.7
20260509063330 43 103 0.0 2.0 0.02 0.01 0.01 92 1010.9
20260509062828 43 109 1.0 1.0 0.02 0.01 0.01 92 1010.9
20260509062325 43 76 0.0 1.0 0.00 0.00 0.00 91 1011.1
20260509061822 43 89 0.0 2.0 0.02 0.00 0.00 91 1011.1
20260509061320 43 113 0.0 1.0 0.02 0.00 0.00 90 1011.1
20260509060816 44 103 0.0 1.0 0.00 0.00 0.00 89 1011.0
20260509060313 44 89 0.0 2.0 0.00 0.00 0.00 88 1011.1
20260509055809 44 126 0.0 2.0 0.00 0.00 0.00 87 1011.2
20260509055306 44 111 1.0 2.0 0.00 0.00 0.00 85 1011.1
20260509054801 44 115 1.0 2.0 0.00 0.00 0.00 84 1011.4
20260509054258 44 111 1.0 1.0 0.00 0.00 0.00 82 1011.5
20260509053757 44 92 0.0 2.0 0.00 0.00 0.00 81 1011.4
20260509053253 44 111 1.0 2.0 0.00 0.00 0.00 81 1011.5
20260509052751 44 123 1.0 2.0 0.00 0.00 0.00 81 1011.4
20260509052249 43 94 1.0 2.0 0.00 0.00 0.00 82 1011.5
20260509051746 43 99 1.0 2.0 0.00 0.00 0.00 81 1011.2
20260509051244 43 83 1.0 3.0 0.00 0.00 0.00 81 1011.3
20260509050740 44 107 1.0 2.0 0.00 0.00 0.00 81 1011.2
20260509050237 44 68 1.0 2.0 0.00 0.00 0.00 79 1011.2
20260509045735 44 122 1.0 2.0 0.00 0.00 0.00 78 1011.2
20260509045231 44 92 1.0 4.0 0.00 0.00 0.00 78 1011.2
20260509044729 44 92 2.0 2.0 0.00 0.00 0.00 77 1011.3
20260509044226 45 141 0.0 0.0 0.00 0.00 0.00 75 1011.5
20260509043722 44 122 0.0 2.0 0.00 0.00 0.00 76 1011.4
20260509043218 44 110 2.0 2.0 0.00 0.00 0.00 78 1011.5
20260509042715 43 86 3.0 4.0 0.00 0.00 0.00 78 1011.4
20260509042211 42 168 0.0 1.0 0.00 0.00 0.00 81 1011.6
20260509041708 41 113 0.0 2.0 0.00 0.00 0.00 81 1011.6
20260509041205 42 68 1.0 3.0 0.00 0.00 0.00 80 1011.4
20260509040704 42 57 1.0 2.0 0.00 0.00 0.00 79 1011.7
20260509040200 41 102 1.0 2.0 0.00 0.00 0.00 78 1011.6
20260509035656 41 102 2.0 2.0 0.00 0.00 0.00 80 1011.6
20260509035153 40 95 0.0 2.0 0.00 0.00 0.00 81 1011.5
20260509034651 39 96 1.0 2.0 0.00 0.00 0.00 82 1011.6
20260509034148 40 96 0.0 2.0 0.00 0.00 0.00 83 1011.8
20260509033645 40 89 1.0 2.0 0.00 0.00 0.00 82 1011.4
20260509033142 40 107 1.0 2.0 0.00 0.00 0.00 83 1011.5
20260509032639 40 50 2.0 2.0 0.00 0.00 0.00 82 1011.8
20260509032136 41 87 1.0 2.0 0.00 0.00 0.00 79 1011.6
20260509031634 41 95 2.0 2.0 0.00 0.00 0.00 77 1011.6
20260509031131 41 89 1.0 2.0 0.00 0.00 0.00 78 1011.7
20260509030629 41 73 1.0 2.0 0.00 0.00 0.00 79 1011.5
20260509030126 41 89 1.0 2.0 0.00 0.00 0.00 79 1011.7
20260509025622 41 67 1.0 2.0 0.00 0.00 0.00 79 1011.7
20260509025118 41 85 1.0 2.0 0.00 0.00 0.00 78 1011.7
20260509024613 41 102 1.0 2.0 0.00 0.00 0.00 78 1012.2
20260509024109 42 104 1.0 2.0 0.00 0.00 0.00 78 1011.8
20260509023608 42 92 1.0 2.0 0.00 0.00 0.00 77 1011.6
20260509023104 42 94 2.0 2.0 0.00 0.00 0.00 76 1011.8
20260509022600 42 69 0.0 2.0 0.00 0.00 0.00 79 1011.7
20260509022059 42 55 0.0 2.0 0.00 0.00 0.00 79 1011.7
20260509021555 43 110 0.0 2.0 0.00 0.00 0.00 78 1011.6
20260509021053 43 65 1.0 2.0 0.00 0.00 0.00 78 1011.6
20260509020551 43 70 1.0 2.0 0.00 0.00 0.00 79 1011.8
20260509020047 44 35 2.0 2.0 0.00 0.00 0.00 78 1011.8
20260509015546 44 34 2.0 2.0 0.00 0.00 0.00 78 1012.0
20260509015043 44 116 1.0 2.0 0.00 0.00 0.00 77 1011.8
20260509014540 45 59 0.0 1.0 0.00 0.00 0.00 76 1011.8
20260509014036 45 55 0.0 1.0 0.00 0.00 0.00 75 1011.8
20260509013533 45 52 1.0 2.0 0.00 0.00 0.00 74 1011.8
20260509013029 45 89 1.0 1.0 0.00 0.00 0.00 74 1011.6
20260509012526 46 49 2.0 2.0 0.00 0.00 0.00 72 1011.7
20260509012022 46 80 1.0 2.0 0.00 0.00 0.00 71 1011.6
20260509011520 46 93 1.0 2.0 0.00 0.00 0.00 68 1011.5
20260509011017 47 81 1.0 2.0 0.00 0.00 0.00 66 1011.5
20260509010515 47 74 0.0 1.0 0.00 0.00 0.00 64 1011.3
20260509010012 48 101 1.0 2.0 0.00 0.00 0.00 60 1011.5
20260509005510 48 115 1.0 3.0 0.00 0.00 0.00 59 1011.3
20260509005009 48 125 2.0 2.0 0.00 0.00 0.00 59 1011.1
20260509004507 48 116 1.0 2.0 0.00 0.00 0.00 59 1011.0
20260509004004 48 119 2.0 2.0 0.00 0.00 0.00 59 1011.0
20260509003502 48 116 2.0 2.0 0.00 0.00 0.00 62 1011.0
20260509002959 49 91 0.0 2.0 0.00 0.00 0.00 60 1010.7
20260509002456 49 87 1.0 1.0 0.00 0.00 0.00 58 1010.8
20260509001953 50 125 1.0 2.0 0.00 0.00 0.00 62 1010.8
20260509001450 50 99 0.0 0.0 0.00 0.00 0.00 58 1010.8
20260509000946 50 84 0.0 2.0 0.00 0.00 0.00 55 1010.7
20260509000447 51 113 1.0 1.0 0.00 0.00 0.00 55 1010.8
20260508235940 51 110 0.0 1.0 0.00 0.00 0.00 55 1010.5
20260508235439 51 22 0.0 1.0 0.00 0.00 0.00 53 1010.6
20260508234935 52 116 0.0 2.0 0.00 0.00 0.00 51 1010.8
20260508234432 52 115 1.0 2.0 0.00 0.00 0.00 53 1010.6
20260508233929 52 89 3.0 3.0 0.00 0.00 0.00 52 1010.5
20260508233429 53 50 0.0 3.0 0.00 0.00 0.00 48 1010.4
20260508232925 53 103 0.0 1.0 0.00 0.00 0.00 47 1010.5
20260508232422 53 58 0.0 2.0 0.00 0.00 0.00 47 1010.4
20260508231919 53 237 0.0 2.0 0.00 0.00 0.00 47 1010.3
20260508231416 53 22 0.0 3.0 0.00 0.00 0.00 45 1010.3
20260508230913 54 2 2.0 2.0 0.00 0.00 0.00 44 1010.4
20260508230410 55 301 1.0 2.0 0.00 0.00 0.00 47 1010.4
20260508225907 55 0 0.0 4.0 0.00 0.00 0.00 44 1010.1
20260508225403 57 135 1.0 3.0 0.00 0.00 0.00 41 1010.3
20260508224901 58 113 0.0 2.0 0.00 0.00 0.00 43 1010.4
20260508224359 56 39 0.0 3.0 0.00 0.00 0.00 44 1010.3
20260508223856 55 50 0.0 2.0 0.00 0.00 0.00 43 1010.3
20260508223354 55 168 1.0 4.0 0.00 0.00 0.00 45 1010.6
20260508222851 56 13 2.0 3.0 0.00 0.00 0.00 43 1010.3
20260508222348 55 260 0.0 5.0 0.00 0.00 0.00 48 1010.2
20260508221844 55 330 2.0 3.0 0.00 0.00 0.00 45 1010.3
20260508221340 55 340 2.0 3.0 0.00 0.00 0.00 45 1010.5
20260508220836 56 295 2.0 3.0 0.00 0.00 0.00 44 1010.3
20260508220333 56 321 2.0 3.0 0.00 0.00 0.00 44 1010.2
20260508215830 56 345 2.0 5.0 0.00 0.00 0.00 44 1010.1
20260508215326 56 344 2.0 5.0 0.00 0.00 0.00 43 1010.5
20260508214823 56 337 3.0 4.0 0.00 0.00 0.00 44 1010.4
20260508214320 56 236 0.0 5.0 0.00 0.00 0.00 42 1010.6
20260508213817 57 322 1.0 7.0 0.00 0.00 0.00 42 1010.4